Regional Weather Roundup
Issued by NWS

Home | Current Version | Previous Version | Graphics & Text | Print | Product List | Glossary On
Versions: 1 2 3 4 5 6 7 8 9 10 11 12 13 14 15 16 17 18 19 20 21 22 23 24 25 26 27 28 29 30 31 32 33 34 35 36 37 38 39 40 41 42 43 44 45 46 47 48 49 50
000
ASUS43 KLMK 041302
RWRKY
KENTUCKY REGIONAL WEATHER ROUNDUP
NATIONAL WEATHER SERVICE LOUISVILLE KY
900 AM EDT SAT JUL 04 2015

NOTE "FAIR" INDICATES FEW OR NO CLOUDS BELOW 12,000 FEET
WITH NO SIGNIFICANT WEATHER AND/OR OBSTRUCTIONS TO VISIBILITY.

KYZ001>023-026-027-061>063-070>075-041400-
WESTERN AND SOUTH CENTRAL KENTUCKY

CITY           SKY/WX    TMP DP  RH WIND       PRES   REMARKS
PADUCAH        CLOUDY    71  69  93 E5        29.98R FOG
HENDERSON      SUNNY     68  64  88 E6        29.97S
OWENSBORO        N/A    N/A N/A N/A MISG        N/A
HOPKINSVILLE   CLOUDY    73  70  91 NW2       29.98R
BOWLING GREEN  CLOUDY    72  68  87 CALM      29.99R
GLASGOW        NOT AVBL
$$

KYZ024-025-028>034-038-045-046-053-041400-
NORTH CENTRAL KENTUCKY

CITY           SKY/WX    TMP DP  RH WIND       PRES   REMARKS
LOUISVILLE/SDF CLOUDY    72  66  81 NE6       29.99R
LOUISVILLE/LOU CLOUDY    71  66  84 CALM      30.00R HAZE
FORT KNOX      CLOUDY    69  68  95 SW2       29.98R FOG
$$

KYZ035>037-039>044-047>052-055>060-089>105-041400-
NORTHEAST KENTUCKY

CITY           SKY/WX    TMP DP  RH WIND       PRES   REMARKS
LEXINGTON      CLOUDY    69  66  90 N3        30.00R FOG
COVINGTON      CLOUDY    70  60  70 NE6       29.99R
FRANKFORT      CLOUDY    69  65  86 CALM      29.99R FOG
$$

KYZ054-064>069-076>088-106>120-041400-
SOUTHEAST KENTUCKY

CITY           SKY/WX    TMP DP  RH WIND       PRES   REMARKS
JACKSON        CLOUDY    68  66  93 VRB3      30.00R FOG
LONDON         CLOUDY    71  65  81 SW7       30.01R
SOMERSET       NOT AVBL
MIDDLESBORO    LGT RAIN  68  67  99 CALM      30.02R
MONTICELLO     PTSUNNY   70  70 100 CALM      30.03R FOG
$$



USA.gov is the U.S. government's official web portal to all federal, state and local government web resources and services.